Location: Six Mile Lake
(44.9000°N, 79.7170°W)
Time: 21:36:11
(UTC-04:00)

BEESAT - Pass Details

Date: 27 June 2022
Orbit: 700 x 706 km, 98.6° (Epoch: 16 August)

Event Time Altitude Azimuth Distance (km) Brightness Sun altitude
Rises 23:13:29 0° 358° (N) 3,103 ? -15.8°
Reaches altitude 10° 23:16:28 10° 338° (NNW) 2,181 ? -16.0°
Maximum altitude 23:19:25 17° 300° (WNW) 1,770 ? -16.3°
Drops below altitude 10° 23:22:22 10° 262° (W) 2,175 ? -16.5°
Sets 23:25:21 0° 242° (WSW) 3,090 ? -16.8°
